This is the latest recevied weather packets stored in our database for station/object SV9TNF-2. If no packets are shown the sender has not sent any weather packets the latest 10 day(s).
| Time | Temp. | Humidity | Pressure | Rain* | Wind** | Luminosity | Snow |
|---|---|---|---|---|---|---|---|
| 1778021414 | 13.89° C | 54% | 1022.7 hPa | 0 mm | 6.71 m/s, 240° | - | - |
| 1778021113 | 13.89° C | 54% | 1022.7 hPa | 0 mm | 5.81 m/s, 230° | - | - |
| 1778020813 | 13.89° C | 55% | 1022.7 hPa | 0 mm | 5.81 m/s, 275° | - | - |
| 1778020513 | 13.89° C | 55% | 1022.7 hPa | 0 mm | 5.81 m/s, 183° | - | - |
| 1778020213 | 14.44° C | 54% | 1022.7 hPa | 0 mm | 5.81 m/s, 236° | - | - |
| 1778019913 | 14.44° C | 54% | 1022.7 hPa | 0 mm | 6.26 m/s, 200° | - | - |
| 1778019613 | 14.44° C | 54% | 1022.7 hPa | 0 mm | 4.92 m/s, 219° | - | - |
| 1778019313 | 14.44° C | 54% | 1022.7 hPa | 0 mm | 6.26 m/s, 168° | - | - |
| 1778019012 | 14.44° C | 54% | 1023 hPa | 0 mm | 6.26 m/s, 239° | - | - |
| 1778018712 | 14.44° C | 54% | 1023 hPa | 0 mm | 4.92 m/s, 222° | - | - |
| 1778018412 | 14.44° C | 54% | 1023 hPa | 0 mm | 5.81 m/s, 199° | - | - |
| 1778018112 | 14.44° C | 54% | 1023 hPa | 0 mm | 5.81 m/s, 215° | - | - |
| 1778017812 | 14.44° C | 54% | 1023 hPa | 0 mm | 5.81 m/s, 229° | - | - |
| 1778017512 | 14.44° C | 53% | 1023 hPa | 0 mm | 8.49 m/s, 229° | - | - |
| 1778017212 | 15° C | 53% | 1023 hPa | 0 mm | 7.6 m/s, 221° | - | - |
| 1778016912 | 14.44° C | 53% | 1022.7 hPa | 0 mm | 8.05 m/s, 193° | - | - |
| 1778016612 | 14.44° C | 55% | 1022.7 hPa | 0 mm | 8.05 m/s, 236° | - | - |
| 1778016312 | 14.44° C | 55% | 1022.7 hPa | 0 mm | 4.92 m/s, 217° | - | - |
| 1778016012 | 14.44° C | 55% | 1022.7 hPa | 0 mm | 4.92 m/s, 190° | - | - |
| 1778015711 | 14.44° C | 55% | 1022.7 hPa | 0 mm | 6.26 m/s, 204° | - | - |
| 1778015411 | 14.44° C | 55% | 1023 hPa | 0 mm | 4.92 m/s, 177° | - | - |
| 1778015111 | 15° C | 54% | 1023 hPa | 0 mm | 5.81 m/s, 217° | - | - |
| 1778014815 | 14.44° C | 56% | 1023 hPa | 0 mm | 6.71 m/s, 189° | - | - |
| 1778014511 | 15° C | 54% | 1023 hPa | 0 mm | 7.15 m/s, 180° | - | - |
| 1778014211 | 15° C | 56% | 1023 hPa | 0 mm | 4.47 m/s, 172° | - | - |
* Rain latest hour (hover to see other rain measurements)
** Current wind speed in m/s (hover to see current wind gust speed)